User: anonymous   Login
Location: Unspecified
(0.0000°N, 0.0000°E)
Time: 12:56:40
(UTC+00:00)
Language:

NOSS 8 (H) - Orbit

View from above orbital plane
View from above orbital plane
View from above satellite
View from above satellite

Ground track
Ground track

The orbit is defined by the following mean orbital elements,

1 18025U          26146.09388282 +.00000000 +00000-0 +63792-3 0 00008
2 18025  63.2918  55.0748 0781802 103.0193 265.9255 13.90150057    04
Epoch (UTC): 26 May 2026 02:15:11
Eccentricity: 0.0781802
inclination: 63.2918°
perigee height: 357 km
apogee height: 1499 km
right ascension of ascending node: 55.0748°
argument of perigee: 103.0193°
revolutions per day: 13.90150057
mean anomaly at epoch: 265.9255°

The dashed part of the orbit path shows where the satellite is in the earth's shadow,  

DLR